Location: ?????????
(54.7630°N, 39.4991°E)
Time: 11:28:11
(UTC+00:00)

Cosmos 1934 Rocket - Pass Details

Date: 14 April 2026
Orbit: 936 x 999 km, 83.0° (Epoch: 10 May)

Event Time Altitude Azimuth Distance (km) Brightness Sun altitude
Exits shadow 19:42:07 28° 203° (SSW) 1,774 5.0 -22.3°
Maximum altitude 19:45:41 73° 283° (WNW) 1,026 4.1 -22.5°
Drops below altitude 10° 19:51:56 10° 9° (N) 2,722 7.1 -22.9°
Sets 19:54:26 0° 11° (N) 3,663 7.9 -23.0°
